QFA121 YMML-YSSY

Flight info

Callsign QFA121
Flight time 1h 3m
Altitude 37000
Route ML H129 DOSEL Y59 RIVET
Aircraft B736/M-SDE2E3FGHIRWXY/LB1

Departure

Time 2026-04-21 07:16
Airport Melbourne Airport (YMML)

Arrival

Time 2026-04-21 08:20
Airport Sydney Kingsford Smith International Airport (YSSY)
Time Latitude Longitude Altitude Speed Heading
2026-04-21 06:40 -37.66696 144.85154 398 ft 0 kts 82°
2026-04-21 06:56 -37.66697 144.85139 396 ft 3 kts 82°
2026-04-21 06:57 -37.66701 144.85111 398 ft 3 kts 77°
2026-04-21 06:57 -37.66708 144.85088 396 ft 3 kts 31°
2026-04-21 06:57 -37.66716 144.85084 396 ft 0 kts 352°
2026-04-21 06:57 -37.66698 144.85080 396 ft 3 kts 352°
2026-04-21 06:58 -37.66681 144.85077 394 ft 0 kts 352°
2026-04-21 07:04 -37.66667 144.85074 397 ft 3 kts 352°
2026-04-21 07:04 -37.66648 144.85072 399 ft 3 kts 353°
2026-04-21 07:05 -37.66609 144.85065 402 ft 8 kts 352°
2026-04-21 07:05 -37.66556 144.85056 404 ft 8 kts 353°
2026-04-21 07:05 -37.66489 144.85042 405 ft 10 kts 342°
2026-04-21 07:05 -37.66451 144.84971 408 ft 11 kts 271°
2026-04-21 07:06 -37.66463 144.84857 406 ft 14 kts 262°
2026-04-21 07:06 -37.66409 144.84773 409 ft 9 kts 317°
2026-04-21 07:06 -37.66394 144.84752 407 ft 3 kts 308°
2026-04-21 07:06 -37.66380 144.84733 408 ft 6 kts 312°
2026-04-21 07:07 -37.66352 144.84678 410 ft 6 kts 279°
2026-04-21 07:07 -37.66353 144.84606 410 ft 10 kts 263°
2026-04-21 07:07 -37.66363 144.84511 409 ft 11 kts 268°
2026-04-21 07:07 -37.66357 144.84412 407 ft 11 kts 276°
2026-04-21 07:08 -37.66353 144.84347 408 ft 11 kts 274°
2026-04-21 07:08 -37.66348 144.84251 409 ft 11 kts 274°
2026-04-21 07:08 -37.66342 144.84157 409 ft 11 kts 274°
2026-04-21 07:08 -37.66338 144.84061 409 ft 11 kts 270°
2026-04-21 07:09 -37.66338 144.84025 409 ft 0 kts 269°
2026-04-21 07:09 -37.66338 144.84024 409 ft 1 kts 269°
2026-04-21 07:10 -37.66344 144.83969 409 ft 9 kts 252°
2026-04-21 07:10 -37.66407 144.83920 405 ft 14 kts 191°
2026-04-21 07:10 -37.66529 144.83935 402 ft 20 kts 170°
2026-04-21 07:10 -37.66677 144.83965 390 ft 22 kts 172°
2026-04-21 07:11 -37.66832 144.83992 390 ft 23 kts 171°
2026-04-21 07:11 -37.66988 144.84020 384 ft 22 kts 172°
2026-04-21 07:11 -37.67139 144.84048 380 ft 22 kts 172°
2026-04-21 07:11 -37.67287 144.84075 376 ft 21 kts 171°
2026-04-21 07:12 -37.67430 144.84101 372 ft 21 kts 173°
2026-04-21 07:12 -37.67569 144.84126 368 ft 20 kts 171°
2026-04-21 07:12 -37.67705 144.84153 364 ft 19 kts 172°
2026-04-21 07:12 -37.67822 144.84174 360 ft 15 kts 175°
2026-04-21 07:13 -37.67872 144.84122 364 ft 0 kts 258°
2026-04-21 07:15 -37.67875 144.84097 359 ft 7 kts 261°
2026-04-21 07:15 -37.67886 144.83998 359 ft 10 kts 269°
2026-04-21 07:15 -37.67850 144.83963 355 ft 4 kts 347°
2026-04-21 07:15 -37.67805 144.83954 363 ft 24 kts 352°
2026-04-21 07:16 -37.67345 144.83866 372 ft 109 kts 353°
2026-04-21 07:16 -37.66351 144.83685 555 ft 164 kts 352°
2026-04-21 07:16 -37.65227 144.83473 1417 ft 168 kts 352°
2026-04-21 07:16 -37.64112 144.83282 2492 ft 158 kts 352°
2026-04-21 07:17 -37.62956 144.83050 3049 ft 184 kts 351°
2026-04-21 07:17 -37.61583 144.82773 3368 ft 213 kts 350°
2026-04-21 07:17 -37.60019 144.82463 3581 ft 243 kts 352°
2026-04-21 07:17 -37.58300 144.82722 4068 ft 258 kts 20°
2026-04-21 07:18 -37.56643 144.83703 4673 ft 267 kts 24°
2026-04-21 07:18 -37.54957 144.84755 5318 ft 273 kts 25°
2026-04-21 07:18 -37.53246 144.85822 6001 ft 275 kts 25°
2026-04-21 07:18 -37.51545 144.86875 6679 ft 277 kts 24°
2026-04-21 07:19 -37.49794 144.87946 7237 ft 282 kts 24°
2026-04-21 07:19 -37.48023 144.89024 7867 ft 284 kts 24°
2026-04-21 07:19 -37.46228 144.90112 8411 ft 289 kts 25°
2026-04-21 07:19 -37.44416 144.91230 8988 ft 292 kts 29°
2026-04-21 07:20 -37.42894 144.92921 9544 ft 295 kts 52°
2026-04-21 07:20 -37.41673 144.95018 10128 ft 298 kts 55°
2026-04-21 07:20 -37.40465 144.97186 10412 ft 310 kts 56°
2026-04-21 07:20 -37.39214 144.99445 10548 ft 324 kts 56°
2026-04-21 07:21 -37.37904 145.01800 10750 ft 332 kts 56°
2026-04-21 07:21 -37.36566 145.04192 11016 ft 337 kts 55°
2026-04-21 07:21 -37.35206 145.06610 11332 ft 339 kts 55°
2026-04-21 07:21 -37.33845 145.09021 11721 ft 338 kts 55°
2026-04-21 07:22 -37.32475 145.11442 11999 ft 341 kts 55°
2026-04-21 07:22 -37.31095 145.13876 12304 ft 343 kts 55°
2026-04-21 07:22 -37.29707 145.16322 12599 ft 344 kts 55°
2026-04-21 07:22 -37.28316 145.18770 12885 ft 345 kts 55°
2026-04-21 07:23 -37.26933 145.21203 13142 ft 347 kts 55°
2026-04-21 07:23 -37.25523 145.23681 13400 ft 349 kts 56°
2026-04-21 07:23 -37.24108 145.26166 13653 ft 350 kts 56°
2026-04-21 07:23 -37.22688 145.28657 13917 ft 352 kts 56°
2026-04-21 07:24 -37.21257 145.31168 14151 ft 353 kts 56°
2026-04-21 07:24 -37.19821 145.33686 14364 ft 354 kts 56°
2026-04-21 07:24 -37.18401 145.36172 14577 ft 355 kts 56°
2026-04-21 07:24 -37.16953 145.38704 14775 ft 357 kts 56°
2026-04-21 07:25 -37.15505 145.41234 14991 ft 358 kts 56°
2026-04-21 07:25 -37.14051 145.43772 15199 ft 359 kts 56°
2026-04-21 07:25 -37.12590 145.46320 15395 ft 360 kts 56°
2026-04-21 07:25 -37.11123 145.48875 15594 ft 361 kts 56°
2026-04-21 07:26 -37.09649 145.51442 15793 ft 362 kts 56°
2026-04-21 07:26 -37.08174 145.54010 15986 ft 363 kts 56°
2026-04-21 07:26 -37.06714 145.56549 16164 ft 364 kts 56°
2026-04-21 07:26 -37.05229 145.59131 16344 ft 365 kts 56°
2026-04-21 07:27 -37.03738 145.61720 16522 ft 366 kts 56°
2026-04-21 07:27 -37.02247 145.64309 16688 ft 367 kts 56°
2026-04-21 07:27 -37.00752 145.66901 16853 ft 368 kts 56°
2026-04-21 07:27 -36.99251 145.69503 17022 ft 369 kts 56°
2026-04-21 07:28 -36.97743 145.72115 17168 ft 370 kts 56°
2026-04-21 07:28 -36.96230 145.74732 17311 ft 372 kts 56°
2026-04-21 07:28 -36.94714 145.77354 17478 ft 372 kts 56°
2026-04-21 07:28 -36.93193 145.79982 17647 ft 373 kts 56°
2026-04-21 07:29 -36.91688 145.82580 17787 ft 374 kts 56°
2026-04-21 07:29 -36.90161 145.85215 17935 ft 375 kts 56°
2026-04-21 07:29 -36.88630 145.87854 18093 ft 375 kts 56°
2026-04-21 07:29 -36.87096 145.90495 18239 ft 376 kts 56°
2026-04-21 07:30 -36.85555 145.93147 18368 ft 377 kts 56°
2026-04-21 07:30 -36.84009 145.95808 18499 ft 378 kts 56°
2026-04-21 07:30 -36.82465 145.98460 18634 ft 379 kts 56°
2026-04-21 07:30 -36.80914 146.01123 18742 ft 380 kts 56°
2026-04-21 07:31 -36.79355 146.03797 18836 ft 381 kts 56°
2026-04-21 07:31 -36.77796 146.06470 18947 ft 381 kts 56°
2026-04-21 07:31 -36.76251 146.09116 19065 ft 382 kts 56°
2026-04-21 07:31 -36.74691 146.11785 19190 ft 382 kts 56°
2026-04-21 07:32 -36.73115 146.14483 19745 ft 387 kts 56°
2026-04-21 07:32 -36.71521 146.17207 20469 ft 390 kts 56°
2026-04-21 07:32 -36.69919 146.19943 21257 ft 392 kts 56°
2026-04-21 07:32 -36.68304 146.22699 21958 ft 396 kts 56°
2026-04-21 07:33 -36.66665 146.25493 22634 ft 401 kts 55°
2026-04-21 07:33 -36.65006 146.28320 23315 ft 406 kts 55°
2026-04-21 07:33 -36.63329 146.31174 23982 ft 410 kts 55°
2026-04-21 07:33 -36.61635 146.34055 24571 ft 414 kts 55°
2026-04-21 07:34 -36.59923 146.36963 25163 ft 418 kts 55°
2026-04-21 07:34 -36.58194 146.39897 25730 ft 422 kts 55°
2026-04-21 07:34 -36.56474 146.42813 26276 ft 426 kts 55°
2026-04-21 07:34 -36.54689 146.45839 26827 ft 430 kts 54°
2026-04-21 07:35 -36.52921 146.48833 27355 ft 435 kts 54°
2026-04-21 07:35 -36.51120 146.51879 27880 ft 439 kts 54°
2026-04-21 07:35 -36.49303 146.54949 28415 ft 443 kts 54°
2026-04-21 07:35 -36.47472 146.58041 28920 ft 447 kts 54°
2026-04-21 07:36 -36.45620 146.61166 29416 ft 451 kts 54°
2026-04-21 07:36 -36.43748 146.64320 29912 ft 455 kts 54°
2026-04-21 07:36 -36.41880 146.67466 30369 ft 459 kts 54°
2026-04-21 07:36 -36.39973 146.70674 30776 ft 462 kts 54°
2026-04-21 07:37 -36.38059 146.73892 31185 ft 465 kts 54°
2026-04-21 07:37 -36.36132 146.77126 31596 ft 468 kts 54°
2026-04-21 07:37 -36.34195 146.80376 31984 ft 470 kts 54°
2026-04-21 07:37 -36.32233 146.83665 32351 ft 473 kts 54°
2026-04-21 07:38 -36.30269 146.86954 32696 ft 476 kts 54°
2026-04-21 07:38 -36.28295 146.90256 33082 ft 478 kts 54°
2026-04-21 07:38 -36.26312 146.93570 33545 ft 476 kts 54°
2026-04-21 07:38 -36.24364 146.96822 34068 ft 474 kts 54°
2026-04-21 07:39 -36.22407 147.00088 34508 ft 472 kts 54°
2026-04-21 07:39 -36.20439 147.03370 34823 ft 474 kts 54°
2026-04-21 07:39 -36.18467 147.06653 35092 ft 476 kts 54°
2026-04-21 07:39 -36.16488 147.09945 35412 ft 476 kts 54°
2026-04-21 07:40 -36.14510 147.13231 35758 ft 476 kts 54°
2026-04-21 07:40 -36.12528 147.16521 36079 ft 476 kts 54°
2026-04-21 07:40 -36.10546 147.19809 36361 ft 477 kts 54°
2026-04-21 07:40 -36.08558 147.23105 36654 ft 477 kts 54°
2026-04-21 07:41 -36.06573 147.26391 36977 ft 477 kts 54°
2026-04-21 07:41 -36.04591 147.29672 37282 ft 477 kts 54°
2026-04-21 07:41 -36.00594 147.36278 37312 ft 485 kts 54°
2026-04-21 07:42 -35.96576 147.42905 37298 ft 478 kts 54°
2026-04-21 07:42 -35.92598 147.49454 37310 ft 476 kts 54°
2026-04-21 07:43 -35.88610 147.56009 37306 ft 477 kts 54°
2026-04-21 07:43 -35.84620 147.62554 37307 ft 478 kts 54°
2026-04-21 07:44 -35.80628 147.69084 37305 ft 479 kts 54°
2026-04-21 07:44 -35.76610 147.75640 37304 ft 480 kts 54°
2026-04-21 07:45 -35.72603 147.82171 37314 ft 480 kts 54°
2026-04-21 07:45 -35.68570 147.88733 37309 ft 480 kts 54°
2026-04-21 07:46 -35.64532 147.95291 37310 ft 480 kts 54°
2026-04-21 07:46 -35.60515 148.01803 37319 ft 480 kts 54°
2026-04-21 07:47 -35.56471 148.08345 37311 ft 480 kts 54°
2026-04-21 07:47 -35.52463 148.14818 37316 ft 471 kts 54°
2026-04-21 07:48 -35.48500 148.21208 37331 ft 469 kts 54°
2026-04-21 07:48 -35.44549 148.27570 37324 ft 469 kts 54°
2026-04-21 07:49 -35.40584 148.33931 37329 ft 469 kts 54°
2026-04-21 07:49 -35.36640 148.40237 37327 ft 469 kts 54°
2026-04-21 07:50 -35.32660 148.46590 37343 ft 470 kts 54°
2026-04-21 07:50 -35.28676 148.52943 37342 ft 471 kts 54°
2026-04-21 07:51 -35.24682 148.59300 37341 ft 471 kts 54°
2026-04-21 07:51 -35.20675 148.65667 37343 ft 472 kts 54°
2026-04-21 07:52 -35.16666 148.72026 37352 ft 472 kts 54°
2026-04-21 07:52 -35.12656 148.78374 37341 ft 472 kts 54°
2026-04-21 07:53 -35.08665 148.84680 37339 ft 472 kts 54°
2026-04-21 07:53 -35.04634 148.91039 37345 ft 472 kts 54°
2026-04-21 07:54 -35.00301 148.97063 37202 ft 475 kts 34°
2026-04-21 07:54 -34.97622 148.99372 36559 ft 478 kts 36°
2026-04-21 07:54 -34.95333 149.02262 36032 ft 469 kts 55°
2026-04-21 07:55 -34.93664 149.05648 35448 ft 464 kts 62°
2026-04-21 07:55 -34.92135 149.09106 34943 ft 461 kts 60°
2026-04-21 07:55 -34.90512 149.12464 34438 ft 459 kts 57°
2026-04-21 07:55 -34.88744 149.15685 33917 ft 455 kts 54°
2026-04-21 07:56 -34.86876 149.18783 33408 ft 452 kts 52°
2026-04-21 07:56 -34.84964 149.21796 32946 ft 447 kts 51°
2026-04-21 07:56 -34.83693 149.23768 32637 ft 444 kts 51°
2026-04-21 07:56 -34.81797 149.26703 32181 ft 440 kts 51°
2026-04-21 07:57 -34.79639 149.30809 31618 ft 431 kts 65°
2026-04-21 07:57 -34.78622 149.32941 31321 ft 432 kts 57°
2026-04-21 07:57 -34.76658 149.35710 30914 ft 431 kts 48°
2026-04-21 07:57 -34.74007 149.39282 30329 ft 427 kts 55°
2026-04-21 07:58 -34.72889 149.41277 30112 ft 420 kts 62°
2026-04-21 07:58 -34.71490 149.44302 29717 ft 414 kts 65°
2026-04-21 07:58 -34.70170 149.47399 29295 ft 410 kts 66°
2026-04-21 07:58 -34.68879 149.50495 28845 ft 412 kts 66°
2026-04-21 07:59 -34.67546 149.53677 28439 ft 436 kts 66°
2026-04-21 07:59 -34.66112 149.57056 27959 ft 461 kts 65°
2026-04-21 07:59 -34.64598 149.60572 27443 ft 471 kts 65°
2026-04-21 07:59 -34.63066 149.64078 26917 ft 467 kts 64°
2026-04-21 08:00 -34.61542 149.67540 26423 ft 464 kts 64°
2026-04-21 08:00 -34.60042 149.70947 25934 ft 461 kts 64°
2026-04-21 08:00 -34.58535 149.74371 25454 ft 457 kts 64°
2026-04-21 08:00 -34.57040 149.77769 24977 ft 454 kts 64°
2026-04-21 08:01 -34.55558 149.81136 24504 ft 451 kts 64°
2026-04-21 08:01 -34.54083 149.84487 24016 ft 448 kts 64°
2026-04-21 08:01 -34.52623 149.87801 23477 ft 444 kts 64°
2026-04-21 08:02 -34.49728 149.94347 22509 ft 435 kts 64°
2026-04-21 08:02 -34.48308 149.97553 22167 ft 429 kts 64°
2026-04-21 08:02 -34.46902 150.00733 21728 ft 426 kts 64°
2026-04-21 08:02 -34.45527 150.03847 21270 ft 424 kts 64°
2026-04-21 08:03 -34.44132 150.07002 20809 ft 423 kts 64°
2026-04-21 08:03 -34.42736 150.10152 20345 ft 422 kts 64°
2026-04-21 08:03 -34.41346 150.13285 19889 ft 421 kts 64°
2026-04-21 08:03 -34.39961 150.16404 19402 ft 420 kts 64°
2026-04-21 08:04 -34.38585 150.19498 18936 ft 415 kts 64°
2026-04-21 08:04 -34.37260 150.22473 18447 ft 412 kts 64°
2026-04-21 08:04 -34.35910 150.25504 17935 ft 406 kts 64°
2026-04-21 08:04 -34.34577 150.28495 17463 ft 400 kts 64°
2026-04-21 08:05 -34.33264 150.31436 16992 ft 395 kts 64°
2026-04-21 08:05 -34.31980 150.34312 16566 ft 391 kts 64°
2026-04-21 08:05 -34.30697 150.37188 16126 ft 387 kts 64°
2026-04-21 08:05 -34.29419 150.40049 15693 ft 385 kts 64°
2026-04-21 08:06 -34.28146 150.42893 15247 ft 383 kts 64°
2026-04-21 08:06 -34.26881 150.45717 14827 ft 380 kts 64°
2026-04-21 08:06 -34.25623 150.48529 14411 ft 378 kts 64°
2026-04-21 08:06 -34.24371 150.51323 13954 ft 377 kts 64°
2026-04-21 08:07 -34.23141 150.54068 13489 ft 375 kts 64°
2026-04-21 08:07 -34.21905 150.56827 13032 ft 372 kts 64°
2026-04-21 08:07 -34.20673 150.59574 12596 ft 370 kts 64°
2026-04-21 08:07 -34.19450 150.62296 12153 ft 367 kts 64°
2026-04-21 08:08 -34.18238 150.64991 11722 ft 365 kts 63°
2026-04-21 08:08 -34.17024 150.67688 11289 ft 362 kts 63°
2026-04-21 08:08 -34.15811 150.70385 10605 ft 364 kts 63°
2026-04-21 08:08 -34.14614 150.73042 10254 ft 353 kts 64°
2026-04-21 08:09 -34.13472 150.75578 10035 ft 343 kts 64°
2026-04-21 08:09 -34.12342 150.78085 9851 ft 330 kts 64°
2026-04-21 08:09 -34.11290 150.80409 9826 ft 303 kts 64°
2026-04-21 08:09 -34.10317 150.82559 9728 ft 282 kts 64°
2026-04-21 08:10 -34.09390 150.84616 9291 ft 277 kts 64°
2026-04-21 08:10 -34.08477 150.86649 8755 ft 276 kts 64°
2026-04-21 08:10 -34.07564 150.88682 8422 ft 274 kts 64°
2026-04-21 08:10 -34.06668 150.90675 8165 ft 272 kts 65°
2026-04-21 08:11 -34.05761 150.92691 7956 ft 272 kts 65°
2026-04-21 08:11 -34.04855 150.94702 7740 ft 273 kts 65°
2026-04-21 08:11 -34.03948 150.96713 7523 ft 272 kts 65°
2026-04-21 08:11 -34.03043 150.98718 7318 ft 272 kts 65°
2026-04-21 08:12 -34.02053 151.00630 7079 ft 275 kts 49°
2026-04-21 08:12 -34.00486 151.01767 6887 ft 278 kts 15°
2026-04-21 08:12 -33.98563 151.01828 6488 ft 279 kts 351°
2026-04-21 08:12 -33.96650 151.01416 6137 ft 280 kts 348°
2026-04-21 08:13 -33.94747 151.00955 5830 ft 278 kts 348°
2026-04-21 08:13 -33.92859 151.00482 5511 ft 278 kts 348°
2026-04-21 08:13 -33.90979 151.00008 5283 ft 274 kts 349°
2026-04-21 08:13 -33.89080 150.99867 5056 ft 274 kts
2026-04-21 08:14 -33.87168 150.99915 4849 ft 276 kts
2026-04-21 08:14 -33.85242 150.99980 4630 ft 275 kts
2026-04-21 08:14 -33.83362 151.00080 4405 ft 273 kts 10°
2026-04-21 08:14 -33.81701 151.00997 4207 ft 259 kts 45°
2026-04-21 08:15 -33.80452 151.02526 3998 ft 254 kts 50°
2026-04-21 08:15 -33.79477 151.04206 3706 ft 237 kts 78°
2026-04-21 08:15 -33.79426 151.06064 3507 ft 217 kts 102°
2026-04-21 08:15 -33.79619 151.07843 3243 ft 210 kts 102°
2026-04-21 08:16 -33.79799 151.09555 3062 ft 203 kts 102°
2026-04-21 08:16 -33.79970 151.11213 3001 ft 195 kts 102°
2026-04-21 08:16 -33.80346 151.12731 2983 ft 186 kts 132°
2026-04-21 08:16 -33.81362 151.13562 2971 ft 180 kts 154°
2026-04-21 08:17 -33.82491 151.14202 2693 ft 181 kts 157°
2026-04-21 08:17 -33.83687 151.14772 2193 ft 187 kts 160°
2026-04-21 08:17 -33.84955 151.15175 1662 ft 189 kts 171°
2026-04-21 08:17 -33.86226 151.15430 1222 ft 177 kts 171°
2026-04-21 08:18 -33.87316 151.15689 1028 ft 142 kts 167°
2026-04-21 08:18 -33.88157 151.15946 855 ft 114 kts 171°
2026-04-21 08:18 -33.88900 151.16111 750 ft 107 kts 168°
2026-04-21 08:18 -33.89635 151.16304 650 ft 108 kts 168°
2026-04-21 08:19 -33.90379 151.16490 528 ft 112 kts 169°
2026-04-21 08:19 -33.91165 151.16703 416 ft 122 kts 169°
2026-04-21 08:19 -33.92020 151.16922 296 ft 129 kts 168°
2026-04-21 08:19 -33.92880 151.17144 124 ft 125 kts 168°
2026-04-21 08:20 -33.93665 151.17349 26 ft 101 kts 168°
2026-04-21 08:20 -33.94190 151.17479 28 ft 44 kts 163°
2026-04-21 08:20 -33.94377 151.17583 29 ft 28 kts 148°
2026-04-21 08:20 -33.94478 151.17675 29 ft 7 kts 141°
2026-04-21 08:21 -33.94510 151.17719 29 ft 7 kts 118°
2026-04-21 08:21 -33.94499 151.17770 29 ft 7 kts 33°
2026-04-21 08:21 -33.94451 151.17769 29 ft 7 kts 348°
2026-04-21 08:21 -33.94401 151.17756 29 ft 8 kts 346°
2026-04-21 08:22 -33.94329 151.17734 29 ft 13 kts 346°
2026-04-21 08:22 -33.94226 151.17702 28 ft 17 kts 345°
2026-04-21 08:22 -33.94106 151.17665 27 ft 18 kts 345°
2026-04-21 08:22 -33.93989 151.17634 27 ft 17 kts 345°
2026-04-21 08:23 -33.93876 151.17602 28 ft 16 kts 347°
2026-04-21 08:23 -33.93766 151.17576 28 ft 16 kts 352°
2026-04-21 08:23 -33.93661 151.17551 28 ft 15 kts 347°
2026-04-21 08:23 -33.93561 151.17523 28 ft 15 kts 347°
2026-04-21 08:24 -33.93456 151.17502 29 ft 16 kts
2026-04-21 08:24 -33.93348 151.17496 29 ft 15 kts 348°
2026-04-21 08:24 -33.93241 151.17469 29 ft 17 kts 348°
2026-04-21 08:24 -33.93122 151.17436 29 ft 14 kts 353°
2026-04-21 08:25 -33.93068 151.17501 29 ft 12 kts 71°
2026-04-21 08:25 -33.93012 151.17570 29 ft 12 kts 62°
2026-04-21 08:25 -33.93019 151.17666 29 ft 12 kts 106°
2026-04-21 08:25 -33.93052 151.17756 29 ft 12 kts 105°
2026-04-21 08:26 -33.93078 151.17818 29 ft 7 kts 162°
2026-04-21 08:26 -33.93120 151.17794 29 ft 7 kts 224°
2026-04-21 08:26 -33.93143 151.17762 29 ft 3 kts 228°
2026-04-21 08:26 -33.93145 151.17760 29 ft 0 kts 229°